カタログに戻る

LUCH 5B

運用中通信GEO
NORAD 38977·PAYLOAD·🇷🇺 Russia

打ち上げ Nov 2, 2012 から Baikonur Cosmodrome

Loading…

TLE

最新Source: Space-Track

元期: Sep 14, 2026, 05:10 UTC

1 38977U 12061A   26257.21545071 -.00000144  00000-0  00000-0 0  9991
2 38977  10.6725  48.9745 0005938 164.6356 200.8161  1.00269868 50508

AllMySatでLUCH 5Bをリアルタイム追跡

Download on the App Store